This is the latest recevied weather packets stored in our database for station/object HB0PJ-13. If no packets are shown the sender has not sent any weather packets the latest 10 day(s).
| Time | Temp. | Humidity | Pressure | Rain* | Wind** | Luminosity | Snow |
|---|---|---|---|---|---|---|---|
| 1777990982 | 21.11° C | 45% | 951.1 hPa | - | - | 64 W/m² | - |
| 1777990862 | 21.67° C | 45% | 951.2 hPa | - | - | 73 W/m² | - |
| 1777990742 | 21.67° C | 45% | 951.1 hPa | - | - | 37 W/m² | - |
| 1777990622 | 21.11° C | 45% | 951.2 hPa | - | - | 73 W/m² | - |
| 1777990382 | 21.11° C | 46% | 951.2 hPa | - | - | 54 W/m² | - |
| 1777990021 | 20.56° C | 47% | 951.2 hPa | - | - | 62 W/m² | - |
| 1777989902 | 20.56° C | 47% | 951.3 hPa | - | - | 73 W/m² | - |
| 1777989782 | 20.56° C | 47% | 951.4 hPa | - | - | 34 W/m² | - |
| 1777989662 | 20.56° C | 47% | 951.3 hPa | - | - | 28 W/m² | - |
| 1777989422 | 20.56° C | 47% | 951.3 hPa | - | - | 44 W/m² | - |
| 1777989302 | 21.11° C | 46% | 951.2 hPa | - | - | 45 W/m² | - |
| 1777989182 | 21.11° C | 46% | 951.2 hPa | - | - | 27 W/m² | - |
| 1777989062 | 21.11° C | 46% | 951.2 hPa | - | - | 35 W/m² | - |
| 1777988941 | 21.67° C | 46% | 951.3 hPa | - | - | 71 W/m² | - |
| 1777988822 | 21.67° C | 46% | 951.2 hPa | - | - | 50 W/m² | - |
| 1777988701 | 21.67° C | 45% | 951.2 hPa | - | - | 57 W/m² | - |
| 1777988581 | 21.67° C | 45% | 951.1 hPa | - | - | 37 W/m² | - |
| 1777988342 | 21.11° C | 45% | 951.2 hPa | - | - | 70 W/m² | - |
| 1777988101 | 21.11° C | 46% | 951.3 hPa | - | - | 68 W/m² | - |
| 1777987981 | 21.11° C | 46% | 951.2 hPa | - | - | 46 W/m² | - |
| 1777987862 | 20.56° C | 46% | 951.3 hPa | - | - | 60 W/m² | - |
| 1777987741 | 20.56° C | 47% | 951.3 hPa | - | - | 62 W/m² | - |
| 1777987621 | 20.56° C | 47% | 951.2 hPa | - | - | 77 W/m² | - |
| 1777987502 | 20° C | 47% | 951.3 hPa | - | - | 50 W/m² | - |
| 1777987381 | 20° C | 47% | 951.2 hPa | - | - | 45 W/m² | - |
* Rain since midnight (hover to see other rain measurements)
** Current wind speed in m/s (hover to see current wind gust speed)